K2ZVL Weather Reports


time (UTC)temp
F
wind
direction
speed
knots
gust
knots
rain 1hr
in
rain 24hr
in
rain mn
in
humidity
%
barometer
mb
20260504045838 42 243 3.5 7.8 0.01 0.01 0.01 76 1005.9
20260504044907 41 315 1.7 6.1 0.01 0.01 0.01 76 1005.7
20260504043837 40 136 0.0 4.3 0.01 0.01 0.01 76 1006.0
20260504042837 40 169 0.0 1.7 0.01 0.01 0.01 77 1006.1
20260504041837 40 169 0.9 2.6 0.01 0.01 0.01 77 1006.2
20260504035907 40 252 0.9 5.2 0.00 0.00 0.00 78 1006.4
20260504034837 41 265 0.9 3.5 0.00 0.00 0.00 78 1006.5
20260504033837 41 205 0.9 7.8 0.00 0.00 0.00 78 1006.6
20260504031837 41 278 0.0 2.6 0.00 0.00 0.00 77 1006.7
20260504030837 41 278 0.0 1.7 0.00 0.00 0.00 76 1006.7
20260504025907 42 278 0.0 2.6 0.00 0.00 0.00 75 1006.8
20260504024837 42 311 1.7 3.5 0.00 0.00 0.00 73 1006.8
20260504022837 42 267 1.7 4.3 0.00 0.00 0.00 69 1007.1
20260504021837 42 251 1.7 4.3 0.00 0.00 0.00 67 1007.2
20260504020837 43 213 3.5 8.7 0.00 0.00 0.00 65 1007.2
20260504014837 43 245 7.0 8.7 0.00 0.00 0.00 59 1006.9
20260504013838 44 285 0.0 11.3 0.00 0.00 0.00 55 1007.1
20260504012838 44 263 0.9 7.0 0.00 0.00 0.00 52 1006.9
20260504011838 44 245 0.9 4.3 0.00 0.00 0.00 50 1006.9
20260504010938 44 265 0.9 4.3 0.00 0.00 0.00 47 1006.9
20260504005908 44 250 0.0 7.0 0.00 0.00 0.00 47 1006.8
20260504003837 44 258 0.9 5.2 0.00 0.00 0.00 46 1006.7
20260504002837 44 271 0.0 2.6 0.00 0.00 0.00 44 1006.6
20260504001837 44 317 0.9 5.2 0.00 0.00 0.00 44 1006.6
20260504000837 44 299 0.9 5.2 0.00 0.00 0.00 43 1006.6
20260503233937 45 307 0.9 9.6 0.00 0.00 0.00 41 1006.5
20260503232837 45 321 0.9 7.8 0.00 0.00 0.00 42 1006.4
20260503231906 46 311 3.5 10.4 0.00 0.00 0.00 39 1006.3
20260503230906 46 302 1.7 13.9 0.00 0.00 0.00 39 1006.1
20260503225907 46 311 3.5 7.0 0.00 0.00 0.00 38 1006.1
20260503223836 47 321 3.5 8.7 0.00 0.00 0.00 34 1006.1
20260503222836 47 317 2.6 13.9 0.00 0.00 0.00 33 1005.9
20260503220906 48 292 3.5 10.4 0.00 0.00 0.00 31 1005.9
20260503215836 49 294 7.0 12.2 0.00 0.00 0.00 30 1006.1
20260503213836 49 302 3.5 12.2 0.00 0.00 0.00 31 1005.7
20260503212907 49 318 5.2 10.4 0.00 0.00 0.00 31 1005.7
20260503211837 49 306 2.6 7.0 0.00 0.00 0.00 32 1005.6
20260503210907 49 248 2.6 8.7 0.00 0.00 0.00 31 1005.6
20260503205906 49 340 2.6 10.4 0.00 0.00 0.00 32 1005.5
20260503204836 49 296 2.6 8.7 0.00 0.00 0.00 33 1005.6
20260503203906 50 288 4.3 10.4 0.00 0.00 0.00 32 1005.6
20260503202906 49 276 0.9 7.8 0.00 0.00 0.00 36 1005.6
20260503201836 49 88 2.6 12.2 0.00 0.00 0.00 36 1005.6
20260503195907 47 310 1.7 9.6 0.00 0.00 0.00 40 1005.9
20260503194907 46 294 0.9 11.3 0.00 0.00 0.00 40 1006.0
20260503192906 45 341 7.0 8.7 0.00 0.00 0.00 40 1006.2
20260503191836 45 331 3.5 8.7 0.00 0.00 0.00 41 1006.4
20260503190936 45 336 2.6 10.4 0.00 0.00 0.00 42 1006.6
20260503185906 45 330 3.5 12.2 0.00 0.00 0.00 43 1006.7
20260503183906 44 302 2.6 12.2 0.00 0.00 0.00 44 1006.8
20260503182836 45 300 7.0 9.6 0.00 0.00 0.00 44 1006.9
20260503181837 44 319 1.7 7.0 0.00 0.00 0.00 43 1006.8
20260503180906 44 326 1.7 5.2 0.00 0.00 0.00 47 1006.9
20260503175936 44 329 1.7 7.8 0.00 0.00 0.00 45 1006.8
20260503174906 43 284 1.7 10.4 0.00 0.00 0.00 46 1006.9
20260503172906 44 281 0.0 8.7 0.00 0.00 0.00 46 1006.9
20260503171906 43 324 0.9 7.0 0.00 0.00 0.00 48 1007.0
20260503170836 43 304 3.5 9.6 0.00 0.00 0.00 48 1007.0
20260503150906 41 311 1.7 7.8 0.00 0.00 0.00 54 1007.8